Weather History for Huslia, Huslia Airport, AK

Change the Weather History Date:

Saturday, January 4, 2014

  Actual Average Record
Temperature  
Mean Temperature 14 °F -  
Max Temperature 17 °F - - ()
Min Temperature 12 °F - - ()
Degree Days  
Heating Degree Days 50    
Moisture  
Dew Point 8 °F    
Average Humidity 78    
Maximum Humidity 93    
Minimum Humidity 63    
Precipitation  
Precipitation 0.00 in - - ()
Sea Level Pressure  
Sea Level Pressure 30.13 in    
Wind  
Wind Speed 16 mph (ENE)    
Max Wind Speed 21 mph    
Max Gust Speed 31 mph    
Visibility 10 miles    
Events      
T = Trace of Precipitation, MM = Missing Value Source: NWS Daily Summary

Daily Weather History Graph

Daily Weather History Graph

Search for Another Location

Airport:

Trip Planner

Search our weather history database for the weather conditions in past years. The results will help you decide how hot, cold, wet, or windy it might be!

Date:

Astronomy

Jan. 04, 2014 Rise Set
Actual Time 11:40 AM AKST 3:21 PM AKST
Civil Twilight 10:12 AM AKST 4:49 PM AKST
Nautical Twilight 8:59 AM AKST 6:02 PM AKST
Astronomical Twilight 7:56 AM AKST 7:05 PM AKST
Moon 11:38 AM AKST (1/4) 10:19 PM AKST (1/4)
Length of Visible Light 6h 36m
Length of Day
3h 41m
Waxing Crescent, 16% of the Moon is Illuminated
Jan 4
Waxing Crescent
Jan 7
First Quarter
Jan 15
Full
Jan 23
Last Quarter
Jan 30
New

Hourly Weather History & Observations

Time (AKST) Temp. Windchill Dew Point Humidity Pressure Visibility Wind Dir Wind Speed Gust Speed Precip Events Conditions
12:16 AM 14.0 °F -0.8 °F 10.4 °F 86% 30.23 in 8.0 mi ENE 13.8 mph 23.0 mph N/A   Overcast
12:36 AM 14.0 °F -1.4 °F 10.4 °F 86% 30.24 in 4.0 mi East 15.0 mph 20.7 mph N/A   Overcast
12:56 AM 14.0 °F -2.5 °F 12.2 °F 93% 30.25 in 9.0 mi ENE 17.3 mph 20.7 mph N/A   Overcast
1:16 AM 14.0 °F -3.0 °F 12.2 °F 93% 30.25 in 5.0 mi East 18.4 mph 23.0 mph N/A   Overcast
1:36 AM 14.0 °F -2.5 °F 12.2 °F 93% 30.25 in 5.0 mi East 17.3 mph 21.9 mph N/A   Overcast
1:56 AM 15.8 °F 0.3 °F 12.2 °F 86% 30.25 in 5.0 mi East 16.1 mph - N/A   Overcast
2:16 AM 14.0 °F -1.4 °F 12.2 °F 93% 30.25 in 4.0 mi ENE 15.0 mph 19.6 mph N/A   Overcast
2:36 AM 14.0 °F -1.4 °F 10.4 °F 86% 30.25 in 4.0 mi East 15.0 mph 19.6 mph N/A   Overcast
2:56 AM 14.0 °F -0.8 °F 10.4 °F 86% 30.26 in 8.0 mi ENE 13.8 mph 19.6 mph N/A   Overcast
3:16 AM 15.8 °F -0.2 °F 10.4 °F 79% 30.26 in 10.0 mi ENE 17.3 mph 23.0 mph N/A   Overcast
3:36 AM 15.8 °F 1.4 °F 10.4 °F 79% 30.26 in 10.0 mi ENE 13.8 mph 20.7 mph N/A   Overcast
3:56 AM 15.8 °F 2.1 °F 10.4 °F 79% 30.27 in 10.0 mi East 12.7 mph 20.7 mph N/A   Overcast
4:16 AM 15.8 °F 0.3 °F 10.4 °F 79% 30.26 in 10.0 mi East 16.1 mph 24.2 mph N/A   Overcast
4:36 AM 15.8 °F 0.9 °F 8.6 °F 73% 30.26 in 10.0 mi ENE 15.0 mph 20.7 mph N/A   Overcast
4:56 AM 15.8 °F 1.4 °F 8.6 °F 73% 30.26 in 10.0 mi ENE 13.8 mph 21.9 mph N/A   Overcast
5:16 AM 15.8 °F -0.2 °F 8.6 °F 73% 30.26 in 10.0 mi ENE 17.3 mph 27.6 mph N/A   Overcast
5:36 AM 15.8 °F 0.3 °F 10.4 °F 79% 30.26 in 10.0 mi East 16.1 mph 23.0 mph N/A   Overcast
5:56 AM 15.8 °F 0.9 °F 10.4 °F 79% 30.26 in 10.0 mi ENE 15.0 mph 19.6 mph N/A   Overcast
6:16 AM 15.8 °F 0.9 °F 10.4 °F 79% 30.26 in 10.0 mi ENE 15.0 mph 21.9 mph N/A   Overcast
6:36 AM 15.8 °F -1.1 °F 10.4 °F 79% 30.25 in 10.0 mi ENE 19.6 mph 27.6 mph N/A   Overcast
6:56 AM 15.8 °F 0.3 °F 10.4 °F 79% 30.25 in 10.0 mi ENE 16.1 mph 25.3 mph N/A   Overcast
7:16 AM 15.8 °F 0.9 °F 10.4 °F 79% 30.26 in 10.0 mi ENE 15.0 mph 20.7 mph N/A   Overcast
7:36 AM 15.8 °F -0.6 °F 10.4 °F 79% 30.25 in 10.0 mi ENE 18.4 mph 24.2 mph N/A   Overcast
7:56 AM 15.8 °F -1.1 °F 10.4 °F 79% 30.25 in 10.0 mi ENE 19.6 mph 25.3 mph N/A   Overcast
8:16 AM 14.0 °F -3.0 °F 8.6 °F 79% 30.25 in 10.0 mi East 18.4 mph 24.2 mph N/A   Overcast
8:36 AM 14.0 °F -2.5 °F 8.6 °F 79% 30.25 in 10.0 mi ENE 17.3 mph 24.2 mph N/A   Mostly Cloudy
8:56 AM 12.2 °F -4.3 °F 8.6 °F 85% 30.24 in 10.0 mi ENE 16.1 mph 23.0 mph N/A   Mostly Cloudy
9:16 AM 12.2 °F -3.1 °F 8.6 °F 85% 30.24 in 10.0 mi ENE 13.8 mph - N/A   Mostly Cloudy
9:36 AM 12.2 °F -1.8 °F 8.6 °F 85% 30.24 in 10.0 mi ENE 11.5 mph - N/A   Partly Cloudy
9:56 AM 12.2 °F -3.7 °F 8.6 °F 85% 30.23 in 10.0 mi ENE 15.0 mph 20.7 mph N/A   Clear
10:16 AM 12.2 °F -3.1 °F 8.6 °F 85% 30.23 in 10.0 mi ENE 13.8 mph 20.7 mph N/A   Clear
10:36 AM 14.0 °F -1.4 °F 8.6 °F 79% 30.22 in 10.0 mi ENE 15.0 mph 21.9 mph N/A   Mostly Cloudy
10:56 AM 14.0 °F -0.8 °F 8.6 °F 79% 30.22 in 10.0 mi ENE 13.8 mph 20.7 mph N/A   Scattered Clouds
11:16 AM 12.2 °F -4.8 °F 6.8 °F 79% 30.22 in 10.0 mi ENE 17.3 mph 21.9 mph N/A   Partly Cloudy
11:36 AM 12.2 °F -3.1 °F 6.8 °F 79% 30.21 in 10.0 mi ENE 13.8 mph 23.0 mph N/A   Mostly Cloudy
11:56 AM 14.0 °F -3.4 °F 8.6 °F 79% 30.20 in 10.0 mi ENE 19.6 mph 26.5 mph N/A   Overcast
12:16 PM 12.2 °F -5.8 °F 6.8 °F 79% 30.19 in 10.0 mi ENE 19.6 mph 31.1 mph N/A   Scattered Clouds
12:36 PM 12.2 °F -5.8 °F 6.8 °F 79% 30.19 in 10.0 mi ENE 19.6 mph 25.3 mph N/A   Clear
12:56 PM 12.2 °F -5.3 °F 6.8 °F 79% 30.18 in 10.0 mi NE 18.4 mph 24.2 mph N/A   Clear
1:16 PM 12.2 °F -5.8 °F 6.8 °F 79% 30.16 in 10.0 mi NE 19.6 mph 27.6 mph N/A   Clear
1:36 PM 12.2 °F -5.8 °F 6.8 °F 79% 30.15 in 10.0 mi ENE 19.6 mph 27.6 mph N/A   Clear
1:56 PM 12.2 °F -5.3 °F 5.0 °F 73% 30.15 in 10.0 mi ENE 18.4 mph 25.3 mph N/A   Clear
2:16 PM 12.2 °F -3.7 °F 6.8 °F 79% 30.14 in 10.0 mi ENE 15.0 mph 25.3 mph N/A   Clear
2:36 PM 12.2 °F -5.3 °F 6.8 °F 79% 30.12 in 10.0 mi ENE 18.4 mph 24.2 mph N/A   Clear
2:56 PM 12.2 °F -5.3 °F 6.8 °F 79% 30.12 in 10.0 mi ENE 18.4 mph 25.3 mph N/A   Clear
3:16 PM 12.2 °F -4.3 °F 6.8 °F 79% 30.11 in 10.0 mi ENE 16.1 mph 24.2 mph N/A   Clear
3:36 PM 12.2 °F -3.7 °F 6.8 °F 79% 30.09 in 10.0 mi ENE 15.0 mph 24.2 mph N/A   Clear
3:56 PM 12.2 °F -4.8 °F 6.8 °F 79% 30.08 in 10.0 mi ENE 17.3 mph 25.3 mph N/A   Clear
4:16 PM 12.2 °F -3.7 °F 6.8 °F 79% 30.07 in 10.0 mi ENE 15.0 mph 21.9 mph N/A   Clear
4:36 PM 12.2 °F -4.3 °F 6.8 °F 79% 30.07 in 10.0 mi ENE 16.1 mph 21.9 mph N/A   Clear
4:56 PM 12.2 °F -4.3 °F 6.8 °F 79% 30.05 in 10.0 mi ENE 16.1 mph 21.9 mph N/A   Clear
5:16 PM 12.2 °F -3.7 °F 6.8 °F 79% 30.04 in 10.0 mi ENE 15.0 mph 21.9 mph N/A   Clear
5:36 PM 12.2 °F -3.7 °F 6.8 °F 79% 30.03 in 10.0 mi ENE 15.0 mph 21.9 mph N/A   Clear
5:56 PM 12.2 °F -3.1 °F 5.0 °F 73% 30.01 in 10.0 mi ENE 13.8 mph 19.6 mph N/A   Clear
6:16 PM 12.2 °F -3.1 °F 5.0 °F 73% 30.01 in 10.0 mi ENE 13.8 mph - N/A   Clear
6:36 PM 12.2 °F -5.3 °F 6.8 °F 79% 30.00 in 10.0 mi NE 18.4 mph 24.2 mph N/A   Clear
6:56 PM 12.2 °F -3.7 °F 6.8 °F 79% 29.99 in 10.0 mi NE 15.0 mph 26.5 mph N/A   Clear
7:16 PM 12.2 °F -3.7 °F 6.8 °F 79% 29.97 in 10.0 mi NE 15.0 mph 25.3 mph N/A   Clear
7:36 PM 12.2 °F -1.8 °F 5.0 °F 73% 29.97 in 10.0 mi NE 11.5 mph 18.4 mph N/A   Clear
7:56 PM 12.2 °F -1.8 °F 5.0 °F 73% 29.96 in 10.0 mi ENE 11.5 mph 19.6 mph N/A   Clear
8:16 PM 12.2 °F -3.1 °F 5.0 °F 73% 29.95 in 10.0 mi ENE 13.8 mph - N/A   Clear
8:36 PM 12.2 °F -2.5 °F 5.0 °F 73% 29.94 in 10.0 mi ENE 12.7 mph 19.6 mph N/A   Clear
8:56 PM 14.0 °F 0.5 °F 5.0 °F 67% 29.93 in 10.0 mi ENE 11.5 mph 23.0 mph N/A   Clear
9:16 PM 14.0 °F -1.4 °F 6.8 °F 73% 29.91 in 10.0 mi ENE 15.0 mph 21.9 mph N/A   Clear
9:36 PM 15.8 °F 0.9 °F 6.8 °F 68% 29.90 in 10.0 mi NE 15.0 mph 23.0 mph N/A   Clear
9:56 PM 15.8 °F -0.6 °F 6.8 °F 68% 29.89 in 10.0 mi NE 18.4 mph 25.3 mph N/A   Clear
10:16 PM 15.8 °F 1.4 °F 6.8 °F 68% 29.88 in 10.0 mi NE 13.8 mph 23.0 mph N/A   Clear
10:36 PM 15.8 °F 1.4 °F 6.8 °F 68% 29.87 in 10.0 mi NE 13.8 mph 21.9 mph N/A   Clear
10:56 PM 15.8 °F 2.1 °F 6.8 °F 68% 29.86 in 10.0 mi NE 12.7 mph 21.9 mph N/A   Clear
11:16 PM 15.8 °F -0.6 °F 6.8 °F 68% 29.85 in 10.0 mi NE 18.4 mph 24.2 mph N/A   Clear
11:36 PM 17.6 °F 1.7 °F 6.8 °F 63% 29.83 in 10.0 mi NE 18.4 mph 28.8 mph N/A   Clear
11:56 PM 17.6 °F 0.9 °F 6.8 °F 63% 29.82 in 10.0 mi ENE 20.7 mph 28.8 mph N/A   Clear